Time,TemperatureF,DewpointF,PressureIn,WindDirection,WindDirectionDegrees,WindSpeedMPH,WindSpeedGustMPH,Humidity,HourlyPrecipIn,Conditions,Clouds,dailyrainin,SoftwareType,DateUTC
2013-02-03 00:00:00,33.9,30.7,29.85,ESE,112,0.0,0.0,88,0.00,,---,0.00,VWS V12.08,2013-02-03 05:00:00,
2013-02-03 00:16:00,33.8,30.6,29.85,ESE,112,0.0,0.0,88,0.00,,---,6.71,VWS V12.08,2013-02-03 05:16:00,
2013-02-03 00:20:00,33.8,30.6,29.85,ESE,112,0.0,0.0,88,0.00,,---,6.71,VWS V12.08,2013-02-03 05:20:00,
2013-02-03 00:37:00,33.8,30.6,29.84,ESE,112,0.0,0.0,88,0.00,,---,6.71,VWS V12.08,2013-02-03 05:37:00,
2013-02-03 00:40:00,33.6,30.4,29.84,ESE,112,0.0,0.0,88,0.00,,---,6.71,VWS V12.08,2013-02-03 05:40:00,
2013-02-03 00:56:00,33.6,30.4,29.84,ESE,112,0.0,0.0,88,0.00,,---,6.71,VWS V12.08,2013-02-03 05:56:00,
2013-02-03 01:01:00,33.6,30.4,29.84,ESE,112,0.0,0.0,88,0.00,,---,6.71,VWS V12.08,2013-02-03 06:01:00,
2013-02-03 01:17:00,33.6,30.4,29.84,South,180,0.0,0.0,88,0.00,,---,6.71,VWS V12.08,2013-02-03 06:17:00,
2013-02-03 01:20:00,33.6,30.4,29.83,South,180,0.0,0.0,88,0.00,,---,6.71,VWS V12.08,2013-02-03 06:20:00,
2013-02-03 01:37:00,33.6,30.4,29.84,South,180,0.0,0.0,88,0.00,,---,6.71,VWS V12.08,2013-02-03 06:37:00,
2013-02-03 01:40:00,33.6,30.4,29.83,South,180,0.0,0.0,88,0.00,,---,6.71,VWS V12.08,2013-02-03 06:40:00,
2013-02-03 01:56:00,33.6,30.4,29.83,South,180,0.0,0.0,88,0.00,,---,6.71,VWS V12.08,2013-02-03 06:56:00,
2013-02-03 02:01:00,33.6,30.4,29.83,South,180,0.0,0.0,88,0.00,,---,6.71,VWS V12.08,2013-02-03 07:01:00,
2013-02-03 02:17:00,33.4,30.2,29.83,South,180,0.0,0.0,88,0.00,,---,6.71,VWS V12.08,2013-02-03 07:17:00,
2013-02-03 02:20:00,33.4,30.2,29.82,South,180,0.0,0.0,88,0.00,,---,6.71,VWS V12.08,2013-02-03 07:20:00,
2013-02-03 02:37:00,33.4,30.5,29.82,South,180,0.0,0.0,89,0.00,,---,6.71,VWS V12.08,2013-02-03 07:37:00,
2013-02-03 02:40:00,33.4,30.5,29.82,South,180,0.0,0.0,89,0.00,,---,6.71,VWS V12.08,2013-02-03 07:40:00,
2013-02-03 02:56:00,33.4,30.5,29.82,South,180,0.0,0.0,89,0.00,,---,6.71,VWS V12.08,2013-02-03 07:56:00,
2013-02-03 03:01:00,33.4,30.5,29.82,South,180,0.0,0.0,89,0.00,,---,6.71,VWS V12.08,2013-02-03 08:01:00,
2013-02-03 03:17:00,33.4,30.5,29.81,South,180,0.0,0.0,89,0.00,,---,6.71,VWS V12.08,2013-02-03 08:17:00,
2013-02-03 03:20:00,33.4,30.5,29.81,South,180,0.0,0.0,89,0.00,,---,6.71,VWS V12.08,2013-02-03 08:20:00,
2013-02-03 03:37:00,33.2,30.3,29.81,South,180,0.0,0.0,89,0.00,,---,6.71,VWS V12.08,2013-02-03 08:37:00,
2013-02-03 03:40:00,33.2,30.3,29.81,South,180,0.0,0.0,89,0.00,,---,6.71,VWS V12.08,2013-02-03 08:40:00,
2013-02-03 03:56:00,33.2,30.3,29.80,South,180,0.0,0.0,89,0.00,,---,6.71,VWS V12.08,2013-02-03 08:56:00,
2013-02-03 04:01:00,33.2,30.3,29.80,South,180,0.0,0.0,89,0.00,,---,6.71,VWS V12.08,2013-02-03 09:01:00,
2013-02-03 04:22:00,33.0,30.1,29.79,South,180,0.0,0.0,89,0.00,,---,6.71,VWS V12.08,2013-02-03 09:22:00,
2013-02-03 04:41:00,33.0,30.1,29.79,South,180,0.0,0.0,89,0.00,,---,6.71,VWS V12.08,2013-02-03 09:41:00,
2013-02-03 05:02:00,33.0,29.8,29.79,South,180,0.0,0.0,88,0.00,,---,6.71,VWS V12.08,2013-02-03 10:02:00,
2013-02-03 05:26:00,32.7,29.5,29.78,South,180,0.0,0.0,88,0.00,,---,6.71,VWS V12.08,2013-02-03 10:26:00,
2013-02-03 05:31:00,32.7,29.5,29.77,South,180,0.0,0.0,88,0.00,,---,6.71,VWS V12.08,2013-02-03 10:31:00,
2013-02-03 05:46:00,32.7,29.5,29.77,South,180,0.0,0.0,88,0.00,,---,6.71,VWS V12.08,2013-02-03 10:46:00,
2013-02-03 06:02:00,32.5,29.4,29.77,South,180,0.0,0.0,88,0.00,,---,6.71,VWS V12.08,2013-02-03 11:02:00,
2013-02-03 06:17:00,32.3,29.1,29.77,SSW,202,0.0,0.0,88,0.00,,---,6.71,VWS V12.08,2013-02-03 11:17:00,
2013-02-03 06:20:00,32.5,29.4,29.77,SSW,202,0.0,0.0,88,0.00,,---,6.71,VWS V12.08,2013-02-03 11:20:00,
2013-02-03 06:37:00,32.5,29.4,29.77,SW,225,0.0,0.0,88,0.00,,---,6.71,VWS V12.08,2013-02-03 11:37:00,
2013-02-03 06:40:00,32.3,29.1,29.77,SW,225,0.0,0.0,88,0.00,,---,6.71,VWS V12.08,2013-02-03 11:40:00,
2013-02-03 06:56:00,32.3,29.4,29.77,South,180,0.0,0.0,89,0.00,,---,6.71,VWS V12.08,2013-02-03 11:56:00,
2013-02-03 07:01:00,32.3,29.4,29.76,South,180,0.0,0.0,89,0.00,,---,6.71,VWS V12.08,2013-02-03 12:01:00,
2013-02-03 07:17:00,32.5,29.6,29.77,SW,225,0.0,0.0,89,0.00,,---,6.71,VWS V12.08,2013-02-03 12:17:00,
2013-02-03 07:20:00,32.5,29.6,29.76,SSW,202,0.0,0.0,89,0.00,,---,6.71,VWS V12.08,2013-02-03 12:20:00,
2013-02-03 07:37:00,32.7,29.8,29.77,SW,225,0.0,0.0,89,0.00,,---,6.71,VWS V12.08,2013-02-03 12:37:00,
2013-02-03 07:40:00,32.7,29.8,29.77,SW,225,0.0,0.0,89,0.00,,---,6.71,VWS V12.08,2013-02-03 12:40:00,
2013-02-03 07:56:00,32.7,29.8,29.76,SW,225,0.0,0.0,89,0.00,,---,6.71,VWS V12.08,2013-02-03 12:56:00,
2013-02-03 08:01:00,32.7,29.8,29.76,SW,225,0.0,0.0,89,0.00,,---,6.71,VWS V12.08,2013-02-03 13:01:00,
2013-02-03 08:17:00,32.7,29.8,29.76,SW,225,0.0,0.0,89,0.00,,---,6.71,VWS V12.08,2013-02-03 13:17:00,
2013-02-03 08:20:00,32.7,29.8,29.76,SSE,158,0.0,0.0,89,0.00,,---,6.71,VWS V12.08,2013-02-03 13:20:00,
2013-02-03 08:37:00,32.7,29.8,29.76,SSW,202,0.0,0.0,89,0.00,,---,6.71,VWS V12.08,2013-02-03 13:37:00,
2013-02-03 08:40:00,32.7,29.8,29.76,SW,225,0.0,0.0,89,0.00,,---,6.71,VWS V12.08,2013-02-03 13:40:00,
2013-02-03 08:56:00,32.7,29.8,29.76,NW,315,0.0,0.0,89,0.00,,---,6.71,VWS V12.08,2013-02-03 13:56:00,
2013-02-03 09:01:00,32.7,29.8,29.76,WNW,292,0.0,0.0,89,0.00,,---,6.71,VWS V12.08,2013-02-03 14:01:00,
2013-02-03 09:26:00,33.4,30.5,29.75,South,180,0.0,0.0,89,0.00,,---,6.71,VWS V12.08,2013-02-03 14:26:00,
2013-02-03 09:31:00,33.9,31.0,29.75,South,180,0.0,0.0,89,0.00,,---,6.71,VWS V12.08,2013-02-03 14:31:00,
2013-02-03 09:47:00,34.3,31.7,29.75,South,180,0.0,0.0,90,0.00,,---,6.71,VWS V12.08,2013-02-03 14:47:00,
2013-02-03 10:08:00,35.9,33.3,29.75,NE,45,0.0,0.0,90,0.00,,---,6.71,VWS V12.08,2013-02-03 15:08:00,
2013-02-03 10:26:00,37.4,34.5,29.75,NE,45,0.0,0.0,89,0.00,,---,6.71,VWS V12.08,2013-02-03 15:26:00,
2013-02-03 10:31:00,38.3,34.8,29.75,North,0,0.0,0.0,87,0.00,,---,6.71,VWS V12.08,2013-02-03 15:31:00,
2013-02-03 10:47:00,38.8,35.0,29.75,ESE,112,0.0,0.0,86,0.00,,---,6.71,VWS V12.08,2013-02-03 15:47:00,
2013-02-03 11:07:00,40.1,35.4,29.76,ESE,112,0.0,0.0,83,0.00,,---,6.71,VWS V12.08,2013-02-03 16:07:00,
2013-02-03 11:26:00,41.7,36.0,29.77,East,90,0.0,0.0,80,0.00,,---,6.71,VWS V12.08,2013-02-03 16:26:00,
2013-02-03 11:31:00,42.4,35.7,29.77,NE,45,0.0,0.0,77,0.00,,---,6.71,VWS V12.08,2013-02-03 16:31:00,
2013-02-03 11:47:00,42.6,35.2,29.77,NE,45,0.0,0.0,75,0.00,,---,6.71,VWS V12.08,2013-02-03 16:47:00,
2013-02-03 12:06:00,44.2,35.8,29.78,East,90,0.0,0.0,72,0.00,,---,6.71,VWS V12.08,2013-02-03 17:06:00,
2013-02-03 12:26:00,45.3,35.4,29.78,North,0,0.0,0.0,68,0.00,,---,6.71,VWS V12.08,2013-02-03 17:26:00,
2013-02-03 12:31:00,45.5,35.2,29.78,ENE,68,0.0,0.0,67,0.00,,---,6.71,VWS V12.08,2013-02-03 17:31:00,
2013-02-03 12:47:00,46.0,34.9,29.78,SE,135,0.0,0.0,65,0.00,,---,6.71,VWS V12.08,2013-02-03 17:47:00,
2013-02-03 13:07:00,45.6,33.8,29.77,NNE,22,0.0,0.0,63,0.00,,---,6.71,VWS V12.08,2013-02-03 18:07:00,
2013-02-03 13:16:00,45.6,33.8,29.77,ENE,68,0.0,0.0,63,0.00,,---,6.71,VWS V12.08,2013-02-03 18:16:00,
2013-02-03 13:20:00,45.5,33.2,29.77,ENE,68,0.0,0.0,62,0.00,,---,6.71,VWS V12.08,2013-02-03 18:20:00,
2013-02-03 13:31:00,45.1,33.3,29.77,SW,225,0.0,0.0,63,0.00,,---,6.71,VWS V12.08,2013-02-03 18:31:00,
2013-02-03 13:46:00,44.9,33.1,29.77,SW,225,0.0,0.0,63,0.00,,---,6.71,VWS V12.08,2013-02-03 18:46:00,
2013-02-03 14:01:00,44.4,32.2,29.77,SE,135,0.0,0.0,62,0.00,,---,6.71,VWS V12.08,2013-02-03 19:01:00,
2013-02-03 14:16:00,43.8,30.8,29.77,ESE,112,0.0,0.0,60,0.00,,---,6.71,VWS V12.08,2013-02-03 19:16:00,
2013-02-03 14:20:00,44.0,30.6,29.77,East,90,0.0,0.0,59,0.00,,---,6.71,VWS V12.08,2013-02-03 19:20:00,
2013-02-03 14:32:00,44.6,31.2,29.77,East,90,0.0,0.0,59,0.00,,---,6.71,VWS V12.08,2013-02-03 19:32:00,
2013-02-03 14:40:00,44.9,31.5,29.77,NE,45,0.0,0.0,59,0.00,,---,6.71,VWS V12.08,2013-02-03 19:40:00,
2013-02-03 14:51:00,45.6,31.7,29.77,ESE,112,0.0,0.0,58,0.00,,---,6.71,VWS V12.08,2013-02-03 19:51:00,
2013-02-03 15:01:00,46.0,32.1,29.77,ENE,68,0.0,0.0,58,0.00,,---,6.71,VWS V12.08,2013-02-03 20:01:00,
2013-02-03 15:16:00,46.4,31.6,29.77,East,90,0.0,0.0,56,0.00,,---,6.71,VWS V12.08,2013-02-03 20:16:00,
2013-02-03 15:20:00,46.5,31.7,29.78,SSW,202,0.0,0.0,56,0.00,,---,6.71,VWS V12.08,2013-02-03 20:20:00,
2013-02-03 15:31:00,46.5,31.7,29.77,SE,135,0.0,0.0,56,0.00,,---,6.71,VWS V12.08,2013-02-03 20:31:00,
2013-02-03 15:47:00,46.5,31.2,29.78,North,0,0.0,0.0,55,0.00,,---,6.71,VWS V12.08,2013-02-03 20:47:00,
2013-02-03 16:07:00,46.2,30.9,29.79,NW,315,0.0,0.0,55,0.00,,---,6.71,VWS V12.08,2013-02-03 21:07:00,
2013-02-03 16:23:00,46.2,30.9,29.79,NE,45,0.0,0.0,55,0.00,,---,6.71,VWS V12.08,2013-02-03 21:23:00,
2013-02-03 16:31:00,46.2,31.4,29.79,ESE,112,0.0,0.0,56,0.00,,---,6.71,VWS V12.08,2013-02-03 21:31:00,
2013-02-03 16:47:00,46.2,31.4,29.79,ESE,112,0.0,0.0,56,0.00,,---,6.71,VWS V12.08,2013-02-03 21:47:00,
2013-02-03 17:01:00,45.5,30.3,29.79,ESE,112,0.0,0.0,55,0.00,,---,6.71,VWS V12.08,2013-02-03 22:01:00,
2013-02-03 17:16:00,45.3,30.1,29.79,ESE,112,0.0,0.0,55,0.00,,---,6.71,VWS V12.08,2013-02-03 22:16:00,
2013-02-03 17:20:00,45.1,29.9,29.79,ESE,112,0.0,0.0,55,0.00,,---,6.71,VWS V12.08,2013-02-03 22:20:00,
2013-02-03 17:31:00,44.7,29.5,29.79,East,90,0.0,0.0,55,0.00,,---,6.71,VWS V12.08,2013-02-03 22:31:00,
2013-02-03 17:46:00,44.4,29.3,29.79,East,90,0.0,0.0,55,0.00,,---,6.71,VWS V12.08,2013-02-03 22:46:00,
2013-02-03 18:02:00,43.7,29.0,29.80,East,90,0.0,0.0,56,0.00,,---,6.71,VWS V12.08,2013-02-03 23:02:00,
2013-02-03 18:16:00,43.3,28.7,29.80,ENE,68,0.0,0.0,56,0.00,,---,6.71,VWS V12.08,2013-02-03 23:16:00,
2013-02-03 18:20:00,43.1,28.5,29.81,ENE,68,0.0,0.0,56,0.00,,---,6.71,VWS V12.08,2013-02-03 23:20:00,
2013-02-03 18:31:00,42.6,28.5,29.82,ENE,68,0.0,0.0,57,0.00,,---,6.71,VWS V12.08,2013-02-03 23:31:00,
2013-02-03 18:48:00,42.4,28.3,29.82,ENE,68,0.0,0.0,57,0.00,,---,6.71,VWS V12.08,2013-02-03 23:48:00,
2013-02-03 19:01:00,41.9,28.2,29.83,ENE,68,0.0,0.0,58,0.00,,---,6.71,VWS V12.08,2013-02-04 00:01:00,
2013-02-03 19:17:00,41.3,28.1,29.84,ENE,68,0.0,0.0,59,0.00,,---,6.71,VWS V12.08,2013-02-04 00:17:00,
2013-02-03 19:20:00,41.3,28.1,29.84,ENE,68,0.0,0.0,59,0.00,,---,6.71,VWS V12.08,2013-02-04 00:20:00,
2013-02-03 19:32:00,40.8,28.0,29.85,ENE,68,0.0,0.0,60,0.00,,---,6.71,VWS V12.08,2013-02-04 00:32:00,
2013-02-03 19:46:00,40.6,28.2,29.85,ENE,68,0.0,0.0,61,0.00,,---,6.71,VWS V12.08,2013-02-04 00:46:00,
2013-02-03 20:01:00,39.7,28.1,29.85,ENE,68,0.0,0.0,63,0.00,,---,6.71,VWS V12.08,2013-02-04 01:01:00,
2013-02-03 20:26:00,38.8,28.1,29.85,ENE,68,0.0,0.0,65,0.00,,---,6.71,VWS V12.08,2013-02-04 01:26:00,
2013-02-03 20:31:00,38.1,27.4,29.85,ENE,68,0.0,0.0,65,0.00,,---,6.71,VWS V12.08,2013-02-04 01:31:00,
2013-02-03 20:47:00,37.5,27.2,29.86,ENE,68,0.0,0.0,66,0.00,,---,6.71,VWS V12.08,2013-02-04 01:47:00,
2013-02-03 21:01:00,36.6,26.7,29.86,ENE,68,0.0,0.0,67,0.00,,---,6.71,VWS V12.08,2013-02-04 02:01:00,
2013-02-03 21:17:00,35.9,26.4,29.86,ENE,68,0.0,0.0,68,0.00,,---,6.71,VWS V12.08,2013-02-04 02:17:00,
2013-02-03 21:20:00,35.7,26.5,29.87,ENE,68,0.0,0.0,69,0.00,,---,6.71,VWS V12.08,2013-02-04 02:20:00,
2013-02-03 21:37:00,35.6,26.5,29.87,ENE,68,0.0,0.0,69,0.00,,---,6.71,VWS V12.08,2013-02-04 02:37:00,
2013-02-03 21:40:00,35.4,26.3,29.86,ENE,68,0.0,0.0,69,0.00,,---,6.71,VWS V12.08,2013-02-04 02:40:00,
2013-02-03 21:56:00,35.2,26.4,29.86,ENE,68,0.0,0.0,70,0.00,,---,6.71,VWS V12.08,2013-02-04 02:56:00,
2013-02-03 22:01:00,34.8,26.0,29.86,ENE,68,0.0,0.0,70,0.00,,---,6.71,VWS V12.08,2013-02-04 03:01:00,
2013-02-03 22:17:00,34.7,26.3,29.86,ENE,68,0.0,0.0,71,0.00,,---,6.71,VWS V12.08,2013-02-04 03:17:00,
2013-02-03 22:20:00,34.7,26.3,29.86,ENE,68,0.0,0.0,71,0.00,,---,6.71,VWS V12.08,2013-02-04 03:20:00,
2013-02-03 22:37:00,34.5,26.1,29.87,ENE,68,0.0,0.0,71,0.00,,---,6.71,VWS V12.08,2013-02-04 03:37:00,
2013-02-03 22:46:00,34.5,26.1,29.87,ENE,68,0.0,0.0,71,0.00,,---,6.71,VWS V12.08,2013-02-04 03:46:00,
2013-02-03 23:01:00,34.3,25.9,29.87,ENE,68,0.0,0.0,71,0.00,,---,6.71,VWS V12.08,2013-02-04 04:01:00,
2013-02-03 23:16:00,34.3,25.9,29.87,ENE,68,0.0,0.0,71,0.00,,---,6.71,VWS V12.08,2013-02-04 04:16:00,
2013-02-03 23:20:00,34.3,26.2,29.87,ENE,68,0.0,0.0,72,0.00,,---,6.71,VWS V12.08,2013-02-04 04:20:00,
2013-02-03 23:31:00,34.1,26.0,29.87,ENE,68,0.0,0.0,72,0.00,,---,6.71,VWS V12.08,2013-02-04 04:31:00,
2013-02-03 23:46:00,33.9,25.8,29.87,ENE,68,0.0,0.0,72,0.00,,---,6.71,VWS V12.08,2013-02-04 04:46:00,